Regional Weather Roundup
Issued by NWS

Home | Current Version | Previous Version | Graphics & Text | Print | Product List | Glossary On
Versions: 1 2 3 4 5 6 7 8 9 10 11 12 13 14 15 16 17 18 19 20 21 22 23 24 25 26 27 28 29 30 31 32 33 34 35 36 37 38 39 40 41 42 43 44 45 46 47 48 49 50
000
ASUS43 KOAX 270202
RWRNE

WEATHER ROUNDUP FOR NEBRASKA
NATIONAL WEATHER SERVICE OMAHA NE
900 PM CDT TUE JUL 26 2016

NOTES: SATELLITE DATA IS BEING USED TO AUGMENT CLOUD COVER ABOVE
       12000 FEET.
       "FAIR" INDICATES FEW OR NO CLOUDS BELOW 12,000 FEET WITH NO
       SIGNIFICANT WEATHER AND/OR OBSTRUCTIONS TO VISIBILITY.

  * THESE STATIONS DO NOT REPORT WEATHER SUCH AS RAIN...SNOW OR FOG.

NEZ001>004-019>022-054>056-270300-
NEBRASKA PANHANDLE

CITY           SKY/WX    TMP DP  RH WIND       PRES   REMARKS
SCOTTSBLUFF    CLOUDY    83  45  26 S6        29.99S
ALLIANCE       CLOUDY    84  61  45 S8G28     29.93F
CHADRON        TSTM      71  59  65 NE13G21   30.02R
SIDNEY         CLEAR     80  50  34 SW10      30.07R
$$

NEZ057>060-069>072-079>082-270300-
SOUTHWEST NEBRASKA

CITY           SKY/WX    TMP DP  RH WIND       PRES   REMARKS
NORTH PLATTE   CLOUDY    79  66  64 SE9       29.97S
IMPERIAL       CLOUDY    84  65  52 S12       29.97S
LEXINGTON      CLOUDY    79  65  62 SE10      29.99F
MCCOOK         CLOUDY    83  63  50 SE10G22   29.97F
OGALLALA       PTCLDY    84  63  50 CALM      29.98R
$$

NEZ005>010-023>029-035>040-094-270300-
NORTH CENTRAL NEBRASKA

CITY           SKY/WX    TMP DP  RH WIND       PRES   REMARKS
VALENTINE      CLOUDY    76  63  64 NW17G29   29.91R THUNDER
AINSWORTH      MOCLDY    81  65  58 SE12      29.94S
BROKEN BOW     CLEAR     78  67  68 SE8       29.98F
O`NEILL        PTCLDY    79  65  60 SE8       30.00R
ORD            CLEAR     79  66  64 SE8       29.97S
THEDFORD       PTCLDY    81  67  63 SE18G24   29.93F
$$

NEZ041-046>049-061>064-073>077-083>087-270300-
SOUTH CENTRAL NEBRASKA

CITY           SKY/WX    TMP DP  RH WIND       PRES   REMARKS
GRAND ISLAND   PTCLDY    79  68  69 SE7       30.00S
AURORA         CLOUDY    76  69  79 SE7       30.00S
HASTINGS       CLEAR     80  66  62 S9        30.01S
HEBRON         PTCLDY    78  68  71 S3        30.00S
HOLDREGE       CLEAR     77  66  70 SE6       30.00F
KEARNEY *      PTCLDY    75  66  73 SE8       30.01S
YORK           PTCLDY    77  68  73 SE8       30.00S
$$

NEZ011>018-030>034-042>045-270300-
NORTHEAST NEBRASKA

CITY           SKY/WX    TMP DP  RH WIND       PRES   REMARKS
NORFOLK        CLEAR     76  65  68 SE9       29.99S
ALBION         CLEAR     75  65  71 SE5       30.00S
BLAIR          CLEAR     75  67  77 E6        30.01S
FREMONT        CLEAR     77  64  63 CALM      30.01R
TEKAMAH        CLEAR     76  68  76 SE5       30.00R
WAYNE          CLEAR     73  68  84 SE6       30.01R
$$

NEZ050>053-065>068-078-088>093-270300-
SOUTHEAST NEBRASKA

CITY           SKY/WX    TMP DP  RH WIND       PRES   REMARKS
LINCOLN        PTCLDY    80  64  58 SE10      30.01R
OMAHA EPPLEY   PTCLDY    81  68  64 E6        29.99S
BEATRICE       PTCLDY    79  66  64 E6        30.00S
FALLS CITY     CLEAR     77  69  76 E3        29.99S
NEBRASKA CITY  MOCLDY    77  65  67 SE5       30.01S
PLATTSMOUTH    PTCLDY    77  68  72 SE3       30.01S
$$

NEZ044-045-051>053-067-270300-
OMAHA AREA

CITY           SKY/WX    TMP DP  RH WIND       PRES   REMARKS
OMAHA EPPLEY   PTCLDY    81  68  64 E6        29.99S
BLAIR          CLEAR     75  67  77 E6        30.01S
FREMONT        CLEAR     77  64  63 CALM      30.01R
MILLARD        PTCLDY    79  68  68 SE5       30.00R
OFFUTT AFB     PTCLDY    76  70  79 E8        29.99S
PLATTSMOUTH    PTCLDY    77  68  72 SE3       30.01S
WAHOO          FAIR      74  67  79 S5        30.01R
$$




USA.gov is the U.S. government's official web portal to all federal, state and local government web resources and services.